Карточка аэропорта UHHH

Внимание!
Информация на этой странице в стадии наполнения.
Если вы не увидели какой-то информации, или заметили неточность - пожалуйста сообщите нам!
Спасибо!
Команда RU-STAFF
Название аэропортаНовый
Название аэропорта (англ.)Novy
Превышение244 ft. (74.4 m.)
Координаты48°31.68', 135°11.4'
Высота перехода900m
Эшелон переходаFL050
Коды ответчика0201-0277
Зона ОрВДХабаровск РПИ (UHHH)
Данные METARUHHH 241530Z 22003MPS CAVOK 07/05 Q1026 R23R/090060 NOSIG RMK QFE763/1018
Проноз погоды (TAF)UHHH 241345Z 2415/2521 24003MPS 9999 SCT020 TEMPO 2418/2423 3100 BR TEMPO 2500/2508 25008MPS
NOTAMshow/hide NOTAM
AWOS   TABLE

Информация о ВПП

ВПП Длина ВПП (м.) Покрытие Курс ВПП Частота ILS
05R4000Асфальтобетон53110.3
05L3500Асфальтобетон53 
23R3500Асфальтобетон233 
23L4000Асфальтобетон233111.15

Диспетчерские позиции

Позывной Наименование органа УВД Частота
UHHH_APPХабаровск-Подход125.2
UHHH_R_APPХабаровск-Круг120.3
UHHH_TWRХабаровск-Старт/Посадка119.3
UHHH_GNDХабаровск Руление121.8



Спутниковое изображение